FW0270 Weather Reports


Display with metric or nautical units.
time (UTC)temp
F
wind
direction
speed
MPH
gust
MPH
rain 1hr
in
rain 24hr
in
rain mn
in
humidity
%
barometer
mb
20260506011540 51 20 2.0 8.0 0.00 0.00 0.00 44 1011.6
20260506010035 51 34 2.0 8.0 0.00 0.00 0.00 44 1011.5
20260506004540 52 39 5.0 10.0 0.00 0.00 0.00 43 1011.2
20260506003033 52 348 6.0 10.0 0.00 0.00 0.00 42 1011.0
20260506001540 53 322 5.0 13.0 0.00 0.00 0.00 42 1010.8
20260506000040 53 309 7.0 13.0 0.00 0.00 0.00 40 1010.4
20260505234531 55 358 2.0 11.0 0.00 0.00 0.00 41 1010.3
20260505233030 55 38 4.0 10.0 0.00 0.00 0.00 39 1010.2
20260505231529 55 51 6.0 10.0 0.00 0.00 0.00 40 1010.1
20260505230033 55 23 6.0 12.0 0.00 0.00 0.00 39 1010.0
20260505224536 56 354 4.0 9.0 0.00 0.00 0.00 40 1010.1
20260505223039 57 46 6.0 12.0 0.00 0.00 0.00 39 1010.1
20260505221525 57 341 4.0 10.0 0.00 0.00 0.00 37 1009.9
20260505220035 57 330 2.0 9.0 0.00 0.00 0.00 37 1010.0
20260505214542 58 43 5.0 8.0 0.00 0.00 0.00 36 1010.0
20260505213038 58 43 3.0 8.0 0.00 0.00 0.00 37 1010.0
20260505211524 58 15 5.0 9.0 0.00 0.00 0.00 36 1009.9
20260505210028 58 7 4.0 9.0 0.00 0.00 0.00 36 1010.0
20260505204528 58 317 2.0 8.0 0.00 0.00 0.00 39 1010.3
20260505203022 58 314 3.0 10.0 0.00 0.00 0.00 37 1010.3
20260505201533 59 352 3.0 8.0 0.00 0.00 0.00 37 1010.4
20260505200024 58 304 3.0 12.0 0.00 0.00 0.00 36 1010.8
20260505194518 59 308 3.0 10.0 0.00 0.00 0.00 38 1010.8
20260505193035 57 44 5.0 11.0 0.00 0.00 0.00 37 1011.0
20260505191515 58 258 1.0 9.0 0.00 0.00 0.00 40 1011.0
20260505190026 57 30 2.0 6.0 0.00 0.00 0.00 38 1011.4
20260505184515 56 287 2.0 7.0 0.00 0.00 0.00 39 1011.6
20260505183017 56 293 3.0 10.0 0.00 0.00 0.00 36 1011.4
20260505181515 56 311 3.0 11.0 0.00 0.00 0.00 38 1011.7
20260505180012 56 284 3.0 10.0 0.00 0.00 0.00 41 1011.7
20260505174507 55 27 3.0 10.0 0.00 0.00 0.00 39 1011.6
20260505173006 56 297 2.0 8.0 0.00 0.00 0.00 42 1011.5
20260505171516 55 254 4.0 11.0 0.00 0.00 0.00 40 1011.5
20260505170010 54 285 2.0 12.0 0.00 0.00 0.00 44 1011.4
20260505164502 54 301 2.0 7.0 0.00 0.00 0.00 41 1011.6
20260505163109 54 315 4.0 11.0 0.00 0.00 0.00 42 1011.6
20260505161558 53 237 3.0 9.0 0.00 0.00 0.00 43 1011.7
20260505153105 51 23 2.0 7.0 0.00 0.00 0.00 45 1011.5
20260505151551 51 15 2.0 8.0 0.00 0.00 0.00 44 1011.3
20260505150110 51 25 0.0 6.0 0.00 0.00 0.00 46 1011.3
20260505124539 0 0.0 0.0 0.00 0.00 0.00 1011.7
20260505123054 0 0.0 0.0 0.00 0.00 0.00 1011.3
20260505121534 0 0.0 0.0 0.00 0.00 0.00 1011.4
20260505120037 0 0.0 0.0 0.00 0.00 0.00 1011.3
20260505114527 0 359 0.0 0.0 0.00 0.00 0.00 1010.9
20260505113019 38 360 0.0 0.0 0.00 0.00 0.00 76 1010.5
20260505111519 38 360 0.0 0.0 0.00 0.00 0.00 75 1010.1
20260505101510 39 360 0.0 0.0 0.00 0.00 0.00 72 1008.8
20260505100011 39 360 0.0 0.0 0.00 0.00 0.00 72 1009.1
20260505094507 39 360 0.0 0.0 0.00 0.00 0.00 71 1009.3
20260505093006 40 360 0.0 0.0 0.00 0.00 0.00 69 1009.3
20260505091503 41 360 0.0 0.0 0.00 0.00 0.00 65 1008.8
20260505090110 42 360 0.0 0.0 0.00 0.00 0.00 63 1008.5
20260505084554 43 360 0.0 1.0 0.00 0.00 0.00 60 1008.2
20260505083103 44 360 0.0 2.0 0.00 0.00 0.00 59 1008.0
20260505081551 45 15 1.0 4.0 0.00 0.00 0.00 57 1007.5
20260505080053 46 41 2.0 5.0 0.00 0.00 0.00 56 1007.9
20260505074544 46 14 1.0 4.0 0.00 0.00 0.00 55 1008.1
20260505073053 46 22 2.0 5.0 0.00 0.00 0.00 54 1007.8
20260505071541 47 15 2.0 8.0 0.00 0.00 0.00 53 1007.8
20260505070049 47 5 5.0 11.0 0.00 0.00 0.00 52 1007.7
20260505064534 48 28 5.0 10.0 0.00 0.00 0.00 51 1007.8
20260505063034 49 28 5.0 10.0 0.00 0.00 0.00 50 1007.8
20260505061530 49 18 7.0 13.0 0.00 0.00 0.00 48 1007.8
20260505060029 49 31 5.0 16.0 0.00 0.00 0.00 49 1007.6
20260505054524 50 335 10.0 18.0 0.00 0.00 0.00 49 1007.3
20260505053022 50 20 9.0 17.0 0.00 0.00 0.00 49 1007.0
20260505051523 51 37 10.0 17.0 0.00 0.00 0.00 49 1006.5
20260505041526 52 11 7.0 17.0 0.00 0.00 0.00 49 1006.4
20260505040012 53 20 8.0 19.0 0.00 0.00 0.00 49 1006.4
20260505034510 53 346 8.0 18.0 0.00 0.00 0.00 50 1006.1
20260505033009 54 41 9.0 16.0 0.00 0.00 0.00 49 1006.0
20260505031508 55 11 11.0 18.0 0.00 0.00 0.00 47 1005.8
20260505030009 57 332 10.0 17.0 0.00 0.00 0.00 46 1005.4
20260505024508 57 34 7.0 15.0 0.00 0.00 0.00 44 1004.7
20260505023007 57 34 6.0 12.0 0.00 0.00 0.00 42 1004.1
20260505021508 57 45 3.0 9.0 0.00 0.00 0.00 42 1004.0
20260505020006 58 282 8.0 16.0 0.00 0.00 0.00 41 1003.6
20260505014506 58 352 6.0 15.0 0.00 0.00 0.00 41 1003.3
20260505013005 59 8 7.0 14.0 0.00 0.00 0.00 40 1002.9